TimeICT,TemperatureF,Dew PointF,Humidity,Sea Level PressureIn,VisibilityMPH,Wind Direction,Wind SpeedMPH,Gust SpeedMPH,PrecipitationIn,Events,Conditions,WindDirDegrees,DateUTC
1:00 AM,77,73,84,29.87,4,NE,4.6,,,,Mist,50,2012-10-20 18:00:00
1:00 AM,77.0,73.4,89,29.86,3.7,NE,4.6,-,N/A,,Unknown,50,2012-10-20 18:00:00
4:00 AM,75.2,73.4,94,29.83,3.7,NE,5.8,-,N/A,,Unknown,40,2012-10-20 21:00:00
6:00 AM,73.4,69.8,88,29.86,3.7,NE,2.3,-,N/A,,Unknown,40,2012-10-20 23:00:00
6:30 AM,73.4,69.8,88,29.86,3.7,NE,1.2,-,N/A,,Unknown,40,2012-10-20 23:30:00
7:00 AM,74,71,88,29.91,4,NE,3.5,,,,Mist,50,2012-10-21 00:00:00
7:00 AM,73.4,69.8,88,29.89,4.3,NE,3.5,-,N/A,,Unknown,50,2012-10-21 00:00:00
8:00 AM,78.8,71.6,78,29.92,5.0,NE,4.6,-,N/A,,Unknown,40,2012-10-21 01:00:00
9:00 AM,82.4,73.4,74,29.95,5.6,ENE,3.5,-,N/A,,Unknown,60,2012-10-21 02:00:00
10:00 AM,84.2,71.6,66,29.92,5.6,East,3.5,-,N/A,,Mostly Cloudy,100,2012-10-21 03:00:00
11:00 AM,87.8,71.6,58,29.92,5.6,North,2.3,-,N/A,,Mostly Cloudy,350,2012-10-21 04:00:00
12:00 PM,87.8,71.6,58,29.86,5.6,SE,4.6,-,N/A,,Mostly Cloudy,140,2012-10-21 05:00:00
1:00 PM,88,72,50,29.85,6,ESE,4.6,,,,Haze,110,2012-10-21 06:00:00
1:00 PM,87.8,71.6,58,29.83,5.6,ESE,4.6,-,N/A,,Overcast,110,2012-10-21 06:00:00
2:00 PM,87.8,73.4,62,29.80,5.6,NNE,2.3,-,N/A,,Mostly Cloudy,20,2012-10-21 07:00:00
3:00 PM,87.8,71.6,58,29.80,5.6,NE,4.6,-,N/A,,Mostly Cloudy,40,2012-10-21 08:00:00
4:00 PM,89.6,73.4,59,29.80,5.6,NNE,3.5,-,N/A,,Mostly Cloudy,30,2012-10-21 09:00:00
5:00 PM,87.8,73.4,62,29.80,5.6,NNE,2.3,-,N/A,,Mostly Cloudy,30,2012-10-21 10:00:00
5:30 PM,86.0,73.4,66,29.80,5.0,ENE,1.2,-,N/A,,Mostly Cloudy,60,2012-10-21 10:30:00
6:00 PM,84.2,75.2,74,29.83,5.0,North,2.3,-,N/A,,Mostly Cloudy,350,2012-10-21 11:00:00
7:00 PM,84,74,65,29.85,5,NNW,2.3,,,,Mist,330,2012-10-21 12:00:00
7:00 PM,84.2,73.4,70,29.83,5.0,NNW,2.3,-,N/A,,Mostly Cloudy,330,2012-10-21 12:00:00
8:00 PM,82.4,75.2,79,29.86,5.0,NE,2.3,-,N/A,,Unknown,50,2012-10-21 13:00:00
9:00 PM,78.8,73.4,83,29.86,5.6,North,4.6,-,N/A,,Unknown,10,2012-10-21 14:00:00
10:00 PM,78.8,71.6,78,29.86,5.6,NNE,3.5,-,N/A,,Unknown,20,2012-10-21 15:00:00
11:00 PM,77.0,71.6,83,29.86,5.6,NNE,2.3,-,N/A,,Unknown,20,2012-10-21 16:00:00